Waarnemingen

Advertentie
Mijn weer
Koksijde, België (6400): temperatuur & dauwpunt: 15.10.2017 16:00:00 - 21.10.2017 16:00:00 (CEST)Koksijde, België (6400): windsnelheid & windstoten: 15.10.2017 16:00:00 - 21.10.2017 16:00:00 (CEST)Koksijde, België (6400): windrichting: 15.10.2017 16:00:00 - 21.10.2017 16:00:00 (CEST)Koksijde, België (6400): luchtdruk: 15.10.2017 16:00:00 - 21.10.2017 16:00:00 (CEST)Koksijde, België (6400): zicht: 15.10.2017 16:00:00 - 21.10.2017 16:00:00 (CEST)
Datum & Tijd tt [°C] td [°C] ff [km/u] ff [kn] fx [km/u] fx [kn] dd ppp [hPa] vv [km]
21.10.2017 16:00:00 - - - - - - - - -
21.10.2017 15:00:00 15,8 9,0 39 21 58 31 ZW 1008,1 10
21.10.2017 14:00:00 15,8 9,9 37 20 - - ZW 1008,2 10
21.10.2017 13:00:00 15,5 10,1 35 19 54 29 ZW 1008,3 10
21.10.2017 12:00:00 14,9 11,6 34 18 47 25 ZW 1008,3 10
21.10.2017 11:00:00 15,1 12,1 31 17 - - ZZW 1008,1 10
21.10.2017 10:00:00 12,8 10,9 26 14 40 21 ZW 1008,1 10
21.10.2017 09:00:00 13,3 12,8 21 11 32 18 ZZW 1007,3 3,6
21.10.2017 08:00:00 13,1 12,3 22 12 - - ZZW 1007,0 10
21.10.2017 07:00:00 12,3 12,0 22 12 36 19 Z 1006,7 10
21.10.2017 06:00:00 11,7 11,1 24 13 36 19 Z 1006,8 10
21.10.2017 05:00:00 12,0 9,6 22 12 - - Z 1007,2 10
21.10.2017 04:00:00 11,9 9,1 24 13 36 19 Z 1007,7 10
21.10.2017 03:00:00 11,6 8,9 22 12 36 19 Z 1008,7 10
21.10.2017 02:00:00 11,6 8,5 22 12 - - Z 1009,8 10
21.10.2017 01:00:00 11,6 8,5 18 10 25 14 Z 1010,6 10
21.10.2017 00:00:00 11,1 8,7 15 8 25 14 ZZO 1011,1 10
20.10.2017 23:00:00 11,5 9,0 18 10 - - Z 1011,7 10
20.10.2017 22:00:00 11,6 9,8 15 8 22 12 ZZW 1012,0 10
20.10.2017 21:00:00 11,7 9,3 16 9 25 14 ZZW 1011,8 10
20.10.2017 20:00:00 11,0 8,9 11 6 - - ZZW 1012,0 10
20.10.2017 19:00:00 12,2 7,9 22 12 43 23 WZW 1011,5 10
20.10.2017 18:00:00 13,8 7,9 29 16 50 27 WZW 1011,0 10
20.10.2017 17:00:00 14,5 8,1 39 21 - - WZW 1010,5 10
20.10.2017 16:00:00 14,3 7,6 44 24 61 33 WZW 1009,7 10
20.10.2017 15:00:00 14,1 10,2 44 24 58 31 WZW 1008,8 10
20.10.2017 14:00:00 14,4 10,6 34 18 - - WZW 1008,2 10
20.10.2017 13:00:00 12,9 12,2 34 18 58 31 WZW 1007,8 2,8
20.10.2017 12:00:00 13,0 12,3 31 17 47 25 ZW 1006,8 6
20.10.2017 11:00:00 11,5 11,4 34 18 - - ZZW 1006,0 1,6
20.10.2017 10:00:00 11,6 10,9 35 19 50 27 ZZW 1005,2 3,5
20.10.2017 09:00:00 11,8 10,3 35 19 50 27 ZZW 1004,7 10
20.10.2017 08:00:00 12,4 10,3 31 17 - - ZZW 1004,3 10
20.10.2017 07:00:00 12,6 11,3 22 12 36 19 ZZW 1004,0 10
20.10.2017 06:00:00 13,3 11,6 24 13 36 19 ZZW 1003,7 10
20.10.2017 05:00:00 13,6 13,0 26 14 - - Z 1003,6 10
20.10.2017 04:00:00 13,6 13,0 28 15 43 23 Z 1003,6 8
20.10.2017 03:00:00 15,1 12,8 24 13 40 21 ZZW 1004,1 10
20.10.2017 02:00:00 15,9 12,3 26 14 - - Z 1003,8 10
20.10.2017 01:00:00 15,9 12,3 26 14 43 23 Z 1004,3 10
20.10.2017 00:00:00 16,4 12,5 26 14 43 23 Z 1004,7 10
19.10.2017 23:00:00 16,7 12,9 18 10 - - Z 1005,1 10
19.10.2017 22:00:00 17,2 13,1 22 12 32 18 ZZO 1004,8 10
19.10.2017 21:00:00 17,9 13,3 22 12 29 16 Z 1005,1 10
19.10.2017 20:00:00 17,6 14,2 15 8 - - Z 1005,8 10
19.10.2017 19:00:00 18,1 14,2 11 6 29 16 Z 1005,7 10
19.10.2017 18:00:00 19,2 14,3 18 10 36 19 Z 1005,7 10
19.10.2017 17:00:00 20,5 14,3 24 13 - - Z 1005,6 10
19.10.2017 16:00:00 21,0 14,9 22 12 36 19 Z 1005,6 10
19.10.2017 15:00:00 20,1 14,6 26 14 36 19 ZZO 1005,7 10
19.10.2017 14:00:00 18,5 13,8 26 14 - - ZZO 1006,3 10
19.10.2017 13:00:00 17,9 13,7 26 14 32 18 ZZO 1007,2 10
19.10.2017 12:00:00 15,0 12,8 22 12 32 18 ZZO 1007,7 10
19.10.2017 11:00:00 14,3 12,1 24 13 - - ZZO 1008,2 10
19.10.2017 10:00:00 13,0 11,7 13 7 18 10 ZO 1008,7 9
19.10.2017 09:00:00 11,6 11,2 9 5 14 8 OZO 1008,8 8
19.10.2017 08:00:00 9,3 9,3 4 2 - - - 1009,1 3,2
19.10.2017 07:00:00 9,3 9,3 5 3 7 4 O 1009,6 2,0
19.10.2017 06:00:00 10,0 10,0 4 2 7 4 - 1009,7 2,5
19.10.2017 05:00:00 10,5 10,5 5 3 - - O 1010,2 2,1
19.10.2017 04:00:00 10,6 10,6 5 3 7 4 O 1010,5 2,0
19.10.2017 03:00:00 10,8 10,8 5 3 7 4 O 1011,0 1,9
19.10.2017 02:00:00 11,3 11,3 5 3 - - ZO 1011,2 2,6
19.10.2017 01:00:00 12,1 12,1 5 3 7 4 Z 1011,6 1,4
19.10.2017 00:00:00 12,1 12,1 4 2 4 2 - 1011,5 2,4
18.10.2017 23:00:00 12,5 12,5 4 2 - - - 1011,7 2,7
18.10.2017 22:00:00 12,7 12,7 4 2 4 2 - 1011,7 2,1
18.10.2017 21:00:00 13,6 13,3 2 1 4 2 - 1011,8 1,5
18.10.2017 20:00:00 14,8 14,4 4 2 - - - 1011,6 4,5
18.10.2017 19:00:00 16,2 15,3 5 3 7 4 OZO 1011,5 1,9
18.10.2017 18:00:00 16,7 15,4 5 3 11 6 Z 1011,6 7
18.10.2017 17:00:00 16,9 15,0 8 4 - - Z 1011,6 8
18.10.2017 16:00:00 16,1 14,4 8 4 11 6 Z 1011,7 5
18.10.2017 15:00:00 15,0 14,2 9 5 14 8 Z 1011,8 3,0
18.10.2017 14:00:00 14,3 14,0 11 6 - - Z 1012,5 2,5
18.10.2017 13:00:00 14,0 14,0 9 5 14 8 ZZO 1012,6 1,8
18.10.2017 12:00:00 12,8 12,8 11 6 14 8 ZZO 1012,7 1,5
18.10.2017 11:00:00 12,1 12,1 9 5 - - ZZO 1013,1 0,3
18.10.2017 10:00:00 11,6 11,6 9 5 11 6 ZO 1013,0 1,3
18.10.2017 09:00:00 10,8 10,8 8 4 11 6 OZO 1012,8 5
18.10.2017 08:00:00 10,6 10,6 9 5 - - ONO 1012,8 6
18.10.2017 07:00:00 11,3 11,2 8 4 11 6 ONO 1013,5 5
18.10.2017 06:00:00 11,9 11,7 9 5 14 8 ONO 1013,8 3,7
18.10.2017 05:00:00 12,3 12,0 9 5 - - ONO 1013,8 2,7
18.10.2017 04:00:00 13,0 12,1 11 6 18 10 NO 1014,5 3,5
18.10.2017 03:00:00 12,6 11,9 13 7 14 8 NNO 1015,2 7
18.10.2017 02:00:00 13,3 12,2 9 5 - - NO 1015,7 7
18.10.2017 01:00:00 13,1 11,8 11 6 14 8 ONO 1016,2 9
18.10.2017 00:00:00 12,5 11,8 8 4 11 6 NO 1016,8 7
17.10.2017 23:00:00 11,7 11,3 5 3 - - ONO 1017,3 10
17.10.2017 22:00:00 10,8 10,4 9 5 7 4 O 1017,6 10
17.10.2017 21:00:00 11,4 10,6 8 4 7 4 ONO 1018,2 10
17.10.2017 20:00:00 12,3 11,1 5 3 - - ONO 1018,7 10
17.10.2017 19:00:00 14,0 11,7 4 2 7 4 - 1018,7 8
17.10.2017 18:00:00 14,5 11,7 4 2 4 2 - 1018,8 10
17.10.2017 17:00:00 15,3 11,4 4 2 - - - 1019,3 10
17.10.2017 16:00:00 15,8 11,3 8 4 14 8 W 1019,7 10
17.10.2017 15:00:00 15,6 11,5 9 5 18 10 WZW 1020,7 10
17.10.2017 14:00:00 15,4 12,5 11 6 - - ZW 1021,7 10
17.10.2017 13:00:00 13,8 12,4 8 4 14 8 ZW 1022,2 10
17.10.2017 12:00:00 13,1 12,0 11 6 18 10 Z 1022,1 10
17.10.2017 11:00:00 12,3 11,5 13 7 - - Z 1022,2 10
17.10.2017 10:00:00 12,1 11,0 9 5 11 6 ZW 1022,3 10
17.10.2017 09:00:00 11,8 10,8 9 5 14 8 ZW 1022,1 10
17.10.2017 08:00:00 11,8 10,6 8 4 - - ZZW 1021,7 10
17.10.2017 07:00:00 11,8 10,6 11 6 14 8 Z 1021,6 10
17.10.2017 06:00:00 12,0 10,7 9 5 14 8 ZZW 1021,3 10
17.10.2017 05:00:00 11,6 10,7 9 5 - - ZZW 1021,5 10
17.10.2017 04:00:00 11,8 10,9 8 4 11 6 ZZW 1021,3 10
17.10.2017 03:00:00 12,6 10,9 9 5 22 12 ZW 1021,5 10
17.10.2017 02:00:00 14,0 11,4 15 8 - - WZW 1021,2 10
17.10.2017 01:00:00 14,5 12,0 15 8 29 16 WZW 1021,0 10
17.10.2017 00:00:00 15,6 11,9 18 10 29 16 WZW 1020,7 10
16.10.2017 23:00:00 16,1 12,6 15 8 - - WZW 1020,2 10
16.10.2017 22:00:00 17,2 15,1 13 7 25 14 W 1019,8 10
16.10.2017 21:00:00 17,6 15,0 13 7 22 12 WZW 1019,6 10
16.10.2017 20:00:00 19,1 15,0 15 8 - - WZW 1019,2 10
16.10.2017 19:00:00 20,3 15,7 13 7 29 16 ZW 1018,5 10
16.10.2017 18:00:00 22,1 16,3 15 8 25 14 ZZW 1018,0 10
16.10.2017 17:00:00 23,6 15,7 18 10 - - Z 1017,5 10
16.10.2017 16:00:00 24,5 15,1 24 13 40 21 Z 1017,7 10
16.10.2017 15:00:00 24,0 16,1 26 14 40 21 Z 1018,2 10
16.10.2017 14:00:00 22,6 15,5 29 16 - - Z 1018,2 10
16.10.2017 13:00:00 21,0 15,9 24 13 32 18 Z 1019,1 10
16.10.2017 12:00:00 19,3 15,8 21 11 25 14 ZZO 1019,5 10
16.10.2017 11:00:00 18,0 15,3 18 10 - - ZZO 1019,8 10
16.10.2017 10:00:00 16,6 15,1 15 8 25 14 ZO 1020,0 10
16.10.2017 09:00:00 16,6 15,0 18 10 22 12 ZZO 1019,7 10
16.10.2017 08:00:00 16,7 15,2 13 7 - - ZZO 1019,7 9
16.10.2017 07:00:00 17,1 15,3 15 8 18 10 ZZO 1019,7 10
16.10.2017 06:00:00 17,5 15,5 9 5 14 8 ZZO 1019,3 10
16.10.2017 05:00:00 17,3 15,4 9 5 - - ZZO 1019,3 10
16.10.2017 04:00:00 17,1 15,4 11 6 14 8 ZZO 1019,2 10
16.10.2017 03:00:00 17,1 15,2 9 5 18 10 ZZO 1019,6 10
16.10.2017 02:00:00 17,6 15,0 13 7 - - ZZO 1019,3 10
16.10.2017 01:00:00 17,0 14,8 8 4 22 12 Z 1019,7 10
16.10.2017 00:00:00 17,5 14,5 16 9 22 12 Z 1019,6 10
15.10.2017 23:00:00 17,2 14,3 13 7 - - Z 1019,7 10
15.10.2017 22:00:00 17,5 14,4 15 8 18 10 Z 1019,6 10
15.10.2017 21:00:00 16,2 14,5 5 3 7 4 ZZW 1019,7 10
15.10.2017 20:00:00 17,3 14,6 5 3 - - ZW 1019,7 10
15.10.2017 19:00:00 19,7 15,0 11 6 14 8 Z 1019,1 10
15.10.2017 18:00:00 21,6 15,7 11 6 22 12 Z 1018,7 10
15.10.2017 17:00:00 22,4 15,0 16 9 - - Z 1018,8 10
15.10.2017 16:00:00 22,8 15,4 21 11 32 18 Z 1019,2 10

tt = temperatuur
td = dauwpunt
ff = windsnelheid
fx = windstoten
dd = windrichting
ppp = luchtdruk
vv = zicht

Weerstations in de omgeving